CW1675 Weather Reports


time (UTC)temp
C
wind
direction
speed
KPH
gust
KPH
rain 1hr
cm
rain 24hr
cm
rain mn
cm
humidity
%
barometer
mb
20260506070337 8 329 3.2 11.3 0.00 1.37 0.51 99 1007.1
20260506062337 8 354 4.8 9.7 0.00 1.37 0.51 99 1006.9
20260506061338 8 322 3.2 12.9 0.03 1.37 0.51 99 1006.9
20260506050837 8 328 3.2 8.0 0.08 1.32 0.48 99 1007.0
20260506050336 8 313 3.2 8.0 0.08 1.32 0.48 99 1007.0
20260506044837 8 343 3.2 9.7 0.08 1.32 0.48 99 1007.0
20260506043837 8 321 3.2 8.0 0.10 1.32 0.48 99 1006.9
20260506043336 8 340 3.2 8.0 0.10 1.32 0.48 99 1006.9
20260506042838 8 33 3.2 8.0 0.08 1.32 0.48 99 1006.9
20260506042336 8 35 3.2 4.8 0.08 1.32 0.48 99 1006.9
20260506040338 8 322 3.2 8.0 0.05 1.24 0.41 99 1007.0
20260506035840 8 357 3.2 8.0 0.05 1.24 0.41 99 1007.0
20260506033337 9 336 3.2 9.7 0.05 1.22 0.38 99 1006.9
20260506030337 9 2 3.2 8.0 0.05 1.19 0.36 99 1007.1
20260506025839 9 327 3.2 8.0 0.05 1.19 0.36 98 1007.1
20260506025336 9 17 3.2 9.7 0.10 1.19 0.36 98 1007.3
20260506024337 9 20 0.0 8.0 0.08 1.17 0.33 98 1007.3
20260506021837 9 344 1.6 8.0 0.10 1.14 0.30 98 1007.3
20260506020837 9 10 3.2 8.0 0.13 1.14 0.30 98 1007.4
20260506020337 9 350 3.2 8.0 0.13 1.14 0.30 98 1007.4
20260506015839 9 17 3.2 8.0 0.15 1.14 0.30 98 1007.4
20260506015336 9 5 3.2 8.0 0.10 1.09 0.25 98 1007.4
20260506014336 9 43 3.2 8.0 0.10 1.09 0.25 98 1007.4
20260506011836 9 324 1.6 8.0 0.08 1.04 0.20 98 1007.5
20260506010337 9 322 3.2 8.0 0.05 1.02 0.18 98 1007.6
20260506005337 9 330 1.6 8.0 0.03 0.99 0.15 98 1007.6
20260506003337 9 331 3.2 3.2 0.05 0.99 0.15 98 1007.8
20260506002337 9 348 0.0 8.0 0.03 0.97 0.13 98 1008.0
20260506001836 9 2 3.2 4.8 0.03 0.97 0.13 98 1008.0
20260506000836 9 0 1.6 8.0 0.03 0.97 0.13 98 1008.1
20260505235840 9 36 3.2 8.0 0.05 0.97 0.13 98 1008.1
20260505234837 9 338 3.2 4.8 0.03 0.94 0.10 98 1008.2
20260505234337 10 334 3.2 9.7 0.03 0.94 0.10 98 1008.2
20260505233837 10 341 3.2 8.0 0.03 0.94 0.10 98 1008.3
20260505232839 10 13 3.2 4.8 0.03 0.94 0.10 98 1008.3
20260505232337 10 356 3.2 8.0 0.03 0.94 0.10 98 1008.3
20260505231836 10 342 3.2 11.3 0.08 0.94 0.10 98 1008.3
20260505230336 10 14 3.2 8.0 0.05 0.91 0.08 98 1008.4
20260505225336 10 25 3.2 11.3 0.08 0.91 0.08 98 1008.5
20260505223837 10 31 3.2 11.3 0.10 0.91 0.08 98 1008.4
20260505223337 10 356 3.2 8.0 0.13 0.91 0.08 98 1008.4
20260505222841 10 3 3.2 9.7 0.13 0.91 0.08 98 1008.4
20260505215344 10 339 1.6 8.0 0.15 0.84 0.84 98 1008.6
20260505214337 10 355 1.6 8.0 0.18 0.84 0.84 98 1008.6
20260505213836 10 340 1.6 4.8 0.15 0.81 0.81 98 1008.7
20260505213337 10 1 1.6 4.8 0.18 0.81 0.81 98 1008.7
20260505212838 10 346 1.6 8.0 0.15 0.79 0.79 98 1008.7
20260505212337 10 348 0.0 4.8 0.15 0.79 0.79 98 1008.8
20260505211841 10 317 0.0 4.8 0.15 0.76 0.76 98 1008.8
20260505211337 10 29 0.0 3.2 0.15 0.76 0.76 98 1008.8
20260505210837 10 29 1.6 3.2 0.15 0.74 0.74 98 1008.8
20260505210337 10 29 1.6 4.8 0.13 0.71 0.71 98 1008.8
20260505205838 10 356 1.6 4.8 0.15 0.71 0.71 98 1008.8
20260505205337 10 353 1.6 3.2 0.13 0.69 0.69 98 1008.9
20260505204843 10 356 1.6 8.0 0.15 0.69 0.69 98 1008.9
20260505201837 10 336 3.2 8.0 0.15 0.61 0.61 98 1008.9
20260505200837 10 338 1.6 8.0 0.15 0.58 0.58 98 1008.9
20260505195838 10 345 3.2 8.0 0.15 0.56 0.56 98 1008.9
20260505194846 10 319 3.2 9.7 0.13 0.53 0.53 98 1008.8
20260505193837 10 342 3.2 8.0 0.15 0.51 0.51 98 1008.7
20260505192837 10 321 3.2 8.0 0.15 0.48 0.48 97 1008.7
20260505192336 10 8 3.2 8.0 0.15 0.48 0.48 97 1008.6
20260505191336 10 336 3.2 8.0 0.15 0.46 0.46 97 1008.6
20260505190337 10 1 3.2 8.0 0.15 0.43 0.43 97 1008.6
20260505185838 10 328 3.2 3.2 0.15 0.41 0.41 97 1008.6
20260505185336 10 21 3.2 8.0 0.15 0.41 0.41 97 1008.6
20260505184337 10 333 3.2 8.0 0.15 0.36 0.36 97 1008.6
20260505182336 10 8 3.2 8.0 0.18 0.33 0.33 97 1008.6
20260505181336 10 340 3.2 8.0 0.18 0.30 0.30 97 1008.6
20260505180336 10 17 3.2 8.0 0.18 0.28 0.28 97 1008.6
20260505175838 11 21 4.8 9.7 0.18 0.25 0.25 97 1008.6
20260505175336 11 8 4.8 9.7 0.18 0.25 0.25 97 1008.7
20260505174837 11 13 4.8 9.7 0.18 0.23 0.23 97 1008.7
20260505173836 11 21 3.2 14.5 0.15 0.18 0.18 96 1008.7
20260505173336 11 3 3.2 11.3 0.15 0.18 0.18 97 1008.7
20260505172337 11 20 3.2 14.5 0.13 0.15 0.15 96 1008.7
20260505170836 11 15 3.2 9.7 0.10 0.13 0.13 96 1008.7
20260505170343 11 34 3.2 8.0 0.08 0.10 0.10 96 1008.7
20260505165339 11 356 4.8 9.7 0.05 0.08 0.08 96 1008.8
20260505163836 11 22 4.8 11.3 0.00 0.03 0.03 95 1008.9
20260505163337 11 354 4.8 9.7 0.00 0.03 0.03 95 1008.9
20260505161836 11 57 3.2 8.0 0.00 0.03 0.03 95 1008.8
20260505160337 12 56 3.2 9.7 0.00 0.03 0.03 95 1008.9
20260505152838 12 35 4.8 14.5 0.00 0.08 0.03 95 1009.0
20260505151837 12 24 4.8 16.1 0.00 0.08 0.03 95 1009.0
20260505151336 12 25 4.8 12.9 0.00 0.08 0.03 95 1009.0
20260505150836 12 27 6.4 12.9 0.00 0.08 0.03 95 1009.0
20260505150337 12 7 8.0 11.3 0.00 0.10 0.03 95 1009.0
20260505121836 13 21 9.7 11.3 0.03 0.41 0.03 95 1009.6
20260505115838 13 20 8.0 14.5 0.03 0.41 0.03 94 1009.6
20260505115336 13 41 8.0 11.3 0.00 0.38 0.00 93 1009.7
20260505114836 13 3 8.0 11.3 0.00 0.38 0.00 93 1009.7
20260505114336 14 33 8.0 16.1 0.00 0.38 0.00 92 1009.7
20260505112336 15 44 3.2 14.5 0.00 0.38 0.00 89 1009.7
20260505111836 15 81 1.6 8.0 0.00 0.38 0.00 90 1009.7
20260505111336 15 74 0.0 8.0 0.00 0.38 0.00 90 1009.7
20260505110836 15 78 1.6 8.0 0.00 0.38 0.00 90 1009.8
20260505101836 15 34 3.2 4.8 0.00 0.38 0.00 88 1009.9
20260505100835 15 43 1.6 9.7 0.00 0.38 0.00 89 1010.0
20260505100336 15 42 0.0 8.0 0.00 0.38 0.00 90 1010.0
20260505095838 15 19 0.0 8.0 0.00 0.38 0.00 89 1010.0
20260505095336 15 60 0.0 3.2 0.00 0.38 0.00 90 1010.0
20260505094836 15 120 0.0 3.2 0.00 0.38 0.00 90 1010.0
20260505094337 14 157 0.0 3.2 0.00 0.38 0.00 91 1010.0
20260505093836 14 157 0.0 1.6 0.00 0.38 0.00 91 1010.0
20260505092838 14 177 0.0 4.8 0.00 0.38 0.00 91 1010.0
20260505085336 14 134 0.0 3.2 0.00 0.38 0.00 92 1010.2
20260505084836 14 93 0.0 3.2 0.00 0.38 0.00 93 1010.2
20260505082839 13 77 0.0 3.2 0.00 0.38 0.00 94 1010.3
20260505082336 13 59 0.0 3.2 0.00 0.38 0.00 95 1010.3
20260505081836 13 64 0.0 3.2 0.00 0.38 0.00 95 1010.3
20260505080836 13 301 0.0 0.0 0.00 0.38 0.00 95 1010.4
20260505073844 13 306 0.0 3.2 0.00 0.38 0.00 98 1010.4
20260505073335 13 180 0.0 3.2 0.00 0.38 0.00 98 1010.4
20260505072839 13 185 0.0 4.8 0.00 0.38 0.00 98 1010.4
20260505071836 13 295 0.0 3.2 0.00 0.38 0.00 99 1010.6
20260505071336 13 274 0.0 4.8 0.00 0.38 0.00 98 1010.6